Regional Weather Roundup
Issued by NWS

Home | Current Version | Previous Version | Text Only | Print | Product List | Glossary Off
Versions: 1 2 3 4 5 6 7 8 9 10 11 12 13 14 15 16 17 18 19 20 21 22 23 24 25 26 27 28 29 30 31 32 33 34 35 36 37 38 39 40 41 42 43 44 45 46 47 48 49 50

000
ASUS43 KDMX 300807
RWRIA

WEATHER ROUNDUP FOR IOWA
NATIONAL WEATHER SERVICE DES MOINES IA
300 AM CDT TUE JUN 30 2015

NOTE: "FAIR" INDICATES FEW OR NO CLOUDS BELOW 12,000 FEET WITH NO
SIGNIFICANT WEATHER AND/OR OBSTRUCTIONS TO VISIBILITY.

* - THESE STATIONS ARE NOT NWS STATIONS...THUS NOT UNDER NWS
QUALITY CONTROL.  THEY ALSO DO NOT REPORT WEATHER SUCH
AS PRECIPITATION OR FOG.

IAZ001>003-012>014-020>022-031>034-043>046-300900-
   NORTHWEST IOWA

CITY           SKY/WX    TMP DP  RH WIND       PRES   REMARKS
CARROLL *      CLOUDY    64  63  94 W9        29.89S
CHEROKEE *     CLOUDY    64  63  94 CALM      29.91S FOG
DENISON *      CLOUDY    64  63  94 CALM      29.89S
LE MARS *        N/A     63  63 100 CALM      29.92S FOG
ORANGE CITY *  CLEAR     63  61  94 N5        29.92S
SHELDON *      CLOUDY    61  61 100 CALM      29.90F
SIOUX CITY     MOCLDY    65  59  81 NW5       29.90F
SPENCER        CLOUDY    61  59  93 NW5       29.90S FOG
STORM LAKE *   CLEAR     66  63  88 NW8       29.91F
$$

IAZ055>058-069>071-079>083-090>094-300900-
   SOUTHWEST IOWA

CITY           SKY/WX    TMP DP  RH WIND       PRES   REMARKS
ATLANTIC *     CLOUDY    64  63  94 CALM      29.90F
AUDUBON *      CLEAR     64  61  88 CALM      29.91S
CLARINDA *     CLOUDY    63  63 100 CALM      29.92F
COUNCIL BLFS * CLOUDY    68  64  88 SW6       29.92F
CRESTON *      CLEAR     64  61  88 W7        29.90F
HARLAN  *      CLEAR     63  63 100 CALM      29.94S
LAMONI         CLEAR     67  62  84 W6        29.89F
RED OAK *      CLOUDY    63  63 100 SW3       29.91F
SHENANDOAH *   MOCLDY    64  63  94 CALM      29.92S
$$

IAZ047>049-059>061-072>074-084-300900-
   CENTRAL IOWA

CITY           SKY/WX    TMP DP  RH WIND       PRES   REMARKS
AMES           MOCLDY    67  63  87 NW7       29.85S
ANKENY *       CLEAR     68  64  88 W7        29.85F
CHARITON *     CLOUDY    66  63  88 W7        29.87F
DES MOINES     CLOUDY    68  62  81 W5        29.86S
GRINNELL*      CLEAR     64  63  94 SW7       29.85F
KNOXVILLE *    CLEAR     66  63  88 W8        29.85F
MARSHALLTOWN   CLEAR     64  62  93 W8        29.83F FOG
PELLA *        CLEAR     68  66  94 W5        29.86F
PERRY *          N/A     66  63  88 W6        29.87S
$$

IAZ004>006-015-016-023>025-035-036-300900-
   NORTH CENTRAL IOWA

CITY           SKY/WX    TMP DP  RH WIND       PRES   REMARKS
ALGONA *       CLEAR     66  63  88 NW7       29.88S
CLARION *      CLEAR     63  61  94 NW5       29.86S
ESTHERVILLE    CLEAR     63  61  93 NW7       29.88F
FORT DODGE *   CLEAR     66  61  82 NW3       29.88S
MASON CITY     CLEAR     63  61  93 NW7       29.86S
FOREST CITY *  CLEAR     64  63  94 NW7       29.85F
IOWA FALLS *     N/A     63  61  94 W7        29.86S
$$

IAZ007>011-017>019-026>030-037>042-050>054-066-300900-
   NORTHEAST IOWA

CITY           SKY/WX    TMP DP  RH WIND       PRES   REMARKS
CEDAR RAPIDS   CLEAR     60  60 100 CALM      29.82F
CHARLES CITY * CLEAR     61  61 100 NW5       29.84S
CLINTON *      PTCLDY    63  57  82 W9        29.83S
DECORAH *        N/A    N/A N/A N/A MISG        N/A
DUBUQUE        CLEAR     60  58  92 SW3       29.81F
MONTICELLO *   MOCLDY    61 N/A N/A CALM      29.82S
OELWEIN *        N/A     61  59  94 CALM      29.84S
WATERLOO       CLEAR     62  60  93 CALM      29.82S
$$

IAZ064-065-067-068-078-300900-
   EAST CENTRAL IOWA

CITY           SKY/WX    TMP DP  RH WIND       PRES   REMARKS
DAVENPORT      PTCLDY    62  60  93 W6        29.81F
IOWA CITY      PTCLDY    63  60  90 CALM      29.84S
MT. PLEASANT * CLEAR     66  63  88 W6        29.84F FOG
MUSCATINE *    PTCLDY    64  61  88 SW5       29.82F
QUAD CITIES    PTCLDY    64  61  90 SW3       29.81S
$$

IAZ062-063-075>077-085>089-095>099-300900-
   SOUTHEAST IOWA

CITY           SKY/WX    TMP DP  RH WIND       PRES   REMARKS
BURLINGTON     CLEAR     66  65  96 W7        29.83F
FAIRFIELD *    CLEAR     64  63  94 W5        29.84F
FORT MADISON * CLEAR     66  66 100 W3        29.85S
KEOKUK *       CLEAR     68  64  88 W6        29.84S
OSKALOOSA *      N/A     64  63  94 W5        29.85F
CENTERVILLE *  CLEAR     66  63  88 W6        29.88F
OTTUMWA        CLEAR     66  65  96 NW5       29.84F
WASHINGTON *   CLEAR     63  63 100 CALM      29.85S FOG
$$

ABBREVIATIONS USED IN REMARKS
   TC - TEMPERATURES IN CELSIUS
  WCI - WIND CHILL INDEX
   HX - HEAT INDEX
  VSB - VISIBILITY
$$



USA.gov is the U.S. government's official web portal to all federal, state and local government web resources and services.